Hourly Data Report for September 09, 2017

All times are specified in Local Standard Time (LST). Add 1 hour to adjust for Daylight Saving Time where and when it is observed.

PETAWAWA AWOS 2
ONTARIO

45°57'00.000" N
77°19'00.000" W
130.10 m
6106396
71625
YWA

Download Data

Hourly Data (September 2017)
Hourly Data Report for September 9, 2017
Temp Definition
°C
Dew Point Temp Definition
°C
Rel Hum Definition
%
Wind Dir Definition
10's deg

Wind Spd Definition
km/h
Visibility Definition
km
Stn Press Definition
kPa
Hmdx Definition


Wind Chill Definition


Weather Definition


TIME
00:00 10.5 6.2 75 31 9 14.5 101.07     LegendNANA
01:00 10.4 6.4 76 29 9 14.5 101.09     LegendNANA
02:00 10.1 6.5 78 32 13 14.5 101.11     LegendNANA
03:00 10.1 6.4 78 32 17 14.5 101.15     LegendNANA
04:00 9.4 6.3 81 32 17 14.5 101.20     LegendNANA
05:00 8.2 6.1 87 29 7 14.5 101.26     LegendNANA
06:00 7.3 5.9 91 29 7 14.5 101.33     LegendNANA
07:00 8.5 6.2 85 28 9 14.5 101.40     LegendNANA
08:00 10.4 6.0 74 32 13 14.5 101.43     LegendNANA
09:00 12.9 6.4 65 32 13 14.5 101.49     LegendNANA
10:00 14.1 5.3 55 36 13 14.5 101.50     LegendNANA
11:00 15.1 5.8 54 4 13 14.5 101.48     LegendNANA
12:00 15.9 4.9 48 35 15 14.5 101.47     LegendNANA
13:00 16.2 5.3 48 33 17 14.5 101.44     LegendNANA
14:00 16.7 6.4 51 30 7 14.5 101.37     LegendNANA
15:00 16.7 5.3 47 36 9 14.5 101.35     LegendNANA
16:00 17.1 5.0 45 32 15 14.5 101.33     LegendNANA
17:00 16.3 4.9 47 32 17 14.5 101.35     LegendNANA
18:00 14.6 6.1 57 32 11 14.5 101.36     LegendNANA
19:00 11.8 7.4 74   0 14.5 101.40     LegendNANA
20:00 9.0 7.2 88 26 4 14.5 101.43     LegendNANA
21:00 7.5 6.8 95 27 4 14.5 101.45     LegendNANA
22:00 6.3 5.9 97 27 6 14.5 101.47     LegendNANA
23:00 7.0 5.9 93 28 6 14.5 101.46     LegendNANA

Notes on Data Quality.

Legend

  • E = Estimated
  • M = Missing
  • NA = Not Available
  • ‡ = Partner data that is not subject to review by the National Climate Archives
Date modified: